Phoenix Deer Valley, AZ

2:26 AM MST on November 13, 2019 (GMT -0700)
Phoenix-Deer Valley Municipal

Weather History for KDVT - September, 2019

Change the Weather History Date:

Sunday, September 29, 2019

  Actual Average Record
Temperature  
Mean Temperature 78 °F -  
Max Temperature 86 °F 91 °F 102 °F (2001)
Min Temperature 70 °F 69 °F 62 °F (2014)
Cooling Degree Days 13    
Growing Degree Days 28 (Base 50)    
Moisture  
Dew Point 55 °F    
Average Humidity 47    
Maximum Humidity 73    
Minimum Humidity 28    
Precipitation  
Precipitation 0.00 in - - ()
Sea Level Pressure  
Sea Level Pressure 29.68 in    
Wind  
Wind Speed 5 mph ()    
Max Wind Speed 15 mph    
Max Gust Speed 18 mph    
Visibility 10.0 miles    
Events      
Averages and records for this station are not official NWS values.
T = Trace of Precipitation, MM = Missing Value Source: Averaged Metar Reports

Daily Weather History Graph

Daily Weather History Graph

Search for Another Location

Airport or City:

Astronomy

Sep. 29, 2019 Rise Set
Actual Time 6:21 AM MST 6:15 PM MST
Civil Twilight 5:56 AM MST 6:40 PM MST
Nautical Twilight 5:27 AM MST 7:09 PM MST
Astronomical Twilight 4:58 AM MST 7:38 PM MST
Moon 7:15 AM MST (9/29) 7:20 PM MST (9/29)
Length of Visible Light 12h 44m
Length of Day
11h 54m
New Moon, 2% of the Moon is Illuminated
Sep 29
New Moon
Oct 5
First Quarter
Oct 13
Full
Oct 21
Last Quarter
Oct 27
New

Hourly Weather History & Observations

Time (MST) Temp. Heat Index Dew Point Humidity Pressure Visibility Wind Dir Wind Speed Gust Speed Precip Events Conditions
12:53 AM 78.1 °F - 57.0 °F 48% 29.64 in 10.0 mi SSW 4.6 mph - N/A   Clear
1:53 AM 75.9 °F - 59.0 °F 56% 29.65 in 10.0 mi South 3.5 mph - N/A   Clear
2:53 AM 73.9 °F - 60.1 °F 62% 29.65 in 10.0 mi Calm Calm - N/A   Clear
3:53 AM 71.1 °F - 60.1 °F 68% 29.66 in 10.0 mi ESE 4.6 mph - N/A   Clear
4:53 AM 72.0 °F - 60.1 °F 66% 29.67 in 10.0 mi SE 4.6 mph - N/A   Clear
5:53 AM 71.1 °F - 60.1 °F 68% 29.69 in 10.0 mi Calm Calm - N/A   Clear
6:53 AM 70.0 °F - 61.0 °F 73% 29.71 in 10.0 mi Calm Calm - N/A   Clear
7:53 AM 73.9 °F - 61.0 °F 64% 29.73 in 10.0 mi Calm Calm - N/A   Clear
8:53 AM 77.0 °F - 61.0 °F 58% 29.73 in 10.0 mi South 9.2 mph - N/A   Clear
9:53 AM 78.1 °F - 61.0 °F 56% 29.73 in 10.0 mi SSW 9.2 mph - N/A   Clear
10:53 AM 80.1 °F 81.1 °F 61.0 °F 52% 29.73 in 10.0 mi SW 11.5 mph 17.3 mph N/A   Scattered Clouds
11:53 AM 81.0 °F 81.6 °F 60.1 °F 49% 29.71 in 10.0 mi Variable 5.8 mph - N/A   Scattered Clouds
12:53 PM 84.0 °F 83.8 °F 59.0 °F 43% 29.69 in 10.0 mi WSW 11.5 mph 17.3 mph N/A   Scattered Clouds
1:53 PM 82.9 °F 82.4 °F 57.0 °F 41% 29.68 in 10.0 mi West 9.2 mph - N/A   Clear
2:53 PM 86.0 °F 84.2 °F 54.0 °F 33% 29.67 in 10.0 mi WSW 15.0 mph - N/A   Clear
3:53 PM 84.9 °F 83.3 °F 54.0 °F 34% 29.66 in 10.0 mi SSW 8.1 mph 18.4 mph N/A   Clear
4:53 PM 84.0 °F 82.5 °F 53.1 °F 34% 29.65 in 10.0 mi SW 10.4 mph - N/A   Clear
5:53 PM 84.0 °F - 51.1 °F 32% 29.65 in 10.0 mi West 12.7 mph - N/A   Clear
6:53 PM 82.0 °F - 48.9 °F 31% 29.65 in 10.0 mi WSW 6.9 mph - N/A   Clear
7:53 PM 80.1 °F - 44.1 °F 28% 29.66 in 10.0 mi West 6.9 mph - N/A   Clear
8:53 PM 79.0 °F - 46.0 °F 31% 29.68 in 10.0 mi West 3.5 mph - N/A   Clear
9:53 PM 75.9 °F - 45.0 °F 33% 29.69 in 10.0 mi Calm Calm - N/A   Clear
10:53 PM 77.0 °F - 46.0 °F 33% 29.69 in 10.0 mi WSW 3.5 mph - N/A   Clear
11:53 PM 73.0 °F - 43.0 °F 34% 29.70 in 10.0 mi Calm Calm - N/A   Clear